"Pseudo-MPEC" for ZTF01qU

Created 2018 Dec 7 19:18:13 UT using Find_Orb

Click here for an explanation of pseudo-MPECs

 
 Astrometry: 
     ZTF01qU  C2018 11 29.22365001 08 17.68 +60 35 33.8          20.67rUNEOCPI41
     ZTF01qU  C2018 11 29.22411001 08 17.88 +60 35 32.5          20.62rUNEOCPI41
     ZTF01qU  C2018 11 29.22774001 08 19.48 +60 35 22.9          20.52rUNEOCPI41
     ZTF01qU  C2018 11 29.23328001 08 21.87 +60 35 07.3          20.38rUNEOCPI41
     ZTF01qU  C2018 11 29.24211001 08 25.73 +60 34 43.1          20.39rUNEOCPI41

Station data:
(I41) Palomar Mountain--ZTF  (N33.357340 W116.859780)  US/California. 1.2-m
   f/2.44 Oschin Schmidt + CCD.

Orbital elements:  ZTF01qU
   Perihelion 2018 Nov 29.945340 +/- 34.6 TT = 22:41:17 (JD 2458452.445340)
Epoch 2018 Nov 29.0 TT = JDT 2458451.5   Earth MOID: 0.2524   Ju: 0.9158
M 359.81862801 +/- 22               (J2000 ecliptic)          AutoNEOCP
n   0.19185909 +/- 0.249            Peri.  152.12571 +/- 90
a   2.97724422 +/- 2.6              Node   269.60326 +/- 60
e   0.5958451 +/- 0.256             Incl.   23.39916 +/- 9
P   5.14                   H 21.4   G  0.15   U 11.8  SR
q 1.20326781 +/- 0.214    Q 4.75122064 +/- 32.2
From 5 observations 2018 Nov. 29 (26.6 min); mean residual 0".11
Residuals in arcseconds: 
181129 I41  .03-  .06-    181129 I41  .11+  .26+    181129 I41  .01+  .00     
181129 I41  .03-  .09-    181129 I41  .06-  .12-    

Ephemerides (geocentric):
Date (UTC) HH   RA              Dec         delta   r     elong  mag " sig PA
---- -- -- --  -------------   -----------  ------ ------ -----  --- ---- ---
2018 12 07 19  02 10 12.349   +52 06 34.74  .28320 1.2070 136.7 20.5  34d  52
2018 12 07 20  02 10 29.011   +52 03 31.84  .28312 1.2070 136.7 20.5  34d  52
2018 12 07 21  02 10 45.656   +52 00 28.65  .28304 1.2071 136.8 20.5  34d  52
2018 12 07 22  02 11 02.284   +51 57 25.15  .28296 1.2071 136.8 20.5  34d  52
2018 12 07 23  02 11 18.895   +51 54 21.35  .28289 1.2072 136.9 20.5  34d  52
2018 12 08 00  02 11 35.489   +51 51 17.25  .28281 1.2072 136.9 20.5  34d  52
2018 12 08 01  02 11 52.065   +51 48 12.85  .28274 1.2072 136.9 20.5  34d  52
2018 12 08 02  02 12 08.625   +51 45 08.16  .28266 1.2073 137.0 20.5  34d  52
2018 12 08 03  02 12 25.167   +51 42 03.17  .28259 1.2073 137.0 20.5  34d  52
2018 12 08 04  02 12 41.693   +51 38 57.88  .28251 1.2074 137.1 20.4  34d  52
2018 12 08 05  02 12 58.201   +51 35 52.29  .28244 1.2074 137.1 20.4  34d  52
2018 12 08 06  02 13 14.692   +51 32 46.42  .28237 1.2075 137.1 20.4  34d  52
2018 12 08 07  02 13 31.165   +51 29 40.24  .28230 1.2075 137.2 20.4  34d  52
2018 12 08 08  02 13 47.621   +51 26 33.78  .28222 1.2075 137.2 20.4  34d  52
2018 12 08 09  02 14 04.060   +51 23 27.02  .28215 1.2076 137.3 20.4  34d  52
2018 12 08 10  02 14 20.482   +51 20 19.97  .28208 1.2076 137.3 20.4  35d  52
2018 12 08 11  02 14 36.886   +51 17 12.63  .28201 1.2077 137.3 20.4  35d  52
2018 12 08 12  02 14 53.273   +51 14 05.00  .28194 1.2077 137.4 20.4  35d  52
2018 12 08 13  02 15 09.642   +51 10 57.08  .28187 1.2078 137.4 20.4  35d  52
2018 12 08 14  02 15 25.994   +51 07 48.87  .28180 1.2078 137.5 20.4  35d  52
2018 12 08 15  02 15 42.329   +51 04 40.37  .28173 1.2078 137.5 20.4  35d  52
2018 12 08 16  02 15 58.646   +51 01 31.59  .28167 1.2079 137.5 20.4  35d  52
2018 12 08 17  02 16 14.945   +50 58 22.52  .28160 1.2079 137.6 20.4  35d  52
2018 12 08 18  02 16 31.227   +50 55 13.17  .28153 1.2080 137.6 20.4  35d  52
2018 12 08 19  02 16 47.491   +50 52 03.53  .28146 1.2080 137.7 20.4  35d  52
2018 12 08 20  02 17 03.738   +50 48 53.61  .28140 1.2081 137.7 20.4  35d  52
2018 12 08 21  02 17 19.967   +50 45 43.40  .28133 1.2081 137.7 20.4  35d  52
2018 12 08 22  02 17 36.179   +50 42 32.92  .28127 1.2082 137.8 20.4  35d  52
2018 12 08 23  02 17 52.373   +50 39 22.15  .28120 1.2082 137.8 20.4  35d  52
2018 12 09 00  02 18 08.549   +50 36 11.10  .28114 1.2082 137.8 20.4  35d  52
2018 12 09 01  02 18 24.707   +50 32 59.78  .28108 1.2083 137.9 20.4  35d  52
2018 12 09 02  02 18 40.848   +50 29 48.17  .28101 1.2083 137.9 20.4  35d  52
2018 12 09 03  02 18 56.971   +50 26 36.29  .28095 1.2084 138.0 20.4  35d  52
2018 12 09 04  02 19 13.077   +50 23 24.14  .28089 1.2084 138.0 20.4  36d  52
2018 12 09 05  02 19 29.164   +50 20 11.70  .28083 1.2085 138.0 20.4  36d  52
2018 12 09 06  02 19 45.234   +50 16 59.00  .28077 1.2085 138.1 20.4  36d  52
2018 12 09 07  02 20 01.286   +50 13 46.01  .28070 1.2086 138.1 20.4  36d  52
2018 12 09 08  02 20 17.320   +50 10 32.76  .28064 1.2086 138.2 20.4  36d  52
2018 12 09 09  02 20 33.336   +50 07 19.23  .28058 1.2087 138.2 20.4  36d  52
2018 12 09 10  02 20 49.334   +50 04 05.44  .28053 1.2087 138.2 20.4  36d  52
2018 12 09 11  02 21 05.315   +50 00 51.37  .28047 1.2088 138.3 20.4  36d  52
2018 12 09 12  02 21 21.277   +49 57 37.03  .28041 1.2088 138.3 20.4  36d  52
2018 12 09 13  02 21 37.222   +49 54 22.43  .28035 1.2089 138.4 20.4  36d  52
2018 12 09 14  02 21 53.148   +49 51 07.56  .28029 1.2089 138.4 20.4  36d  52
2018 12 09 15  02 22 09.057   +49 47 52.42  .28024 1.2090 138.4 20.4  36d  52
2018 12 09 16  02 22 24.948   +49 44 37.02  .28018 1.2090 138.5 20.4  36d  52
2018 12 09 17  02 22 40.821   +49 41 21.35  .28013 1.2090 138.5 20.4  36d  52
2018 12 09 18  02 22 56.675   +49 38 05.42  .28007 1.2091 138.5 20.4  36d  52